Time,TemperatureF,DewpointF,PressureIn,WindDirection,WindDirectionDegrees,WindSpeedMPH,WindSpeedGustMPH,Humidity,HourlyPrecipIn,Conditions,Clouds,dailyrainin,SoftwareType,DateUTC
2013-06-27 00:04:00,61.8,60.0,29.73,North,355,0.0,-999.0,95,-99.99,,,0.00,weatherlink.com 1.10,2013-06-27 04:04:00,
2013-06-27 00:19:00,61.8,60.0,29.73,North,355,0.0,-999.0,95,-99.99,,,0.00,weatherlink.com 1.10,2013-06-27 04:19:00,
2013-06-27 00:34:00,61.7,60.0,29.73,North,355,0.0,-999.0,95,-99.99,,,0.00,weatherlink.com 1.10,2013-06-27 04:34:00,
2013-06-27 00:49:00,61.9,61.0,29.73,North,355,0.0,-999.0,95,-99.99,,,0.00,weatherlink.com 1.10,2013-06-27 04:49:00,
2013-06-27 01:04:00,62.1,61.0,29.73,North,355,0.0,-999.0,95,-99.99,,,0.00,weatherlink.com 1.10,2013-06-27 05:04:00,
2013-06-27 01:19:00,62.7,61.0,29.73,North,355,0.0,-999.0,95,-99.99,,,0.00,weatherlink.com 1.10,2013-06-27 05:19:00,
2013-06-27 01:34:00,62.9,62.0,29.73,ESE,107,0.0,-999.0,95,-99.99,,,0.00,weatherlink.com 1.10,2013-06-27 05:34:00,
2013-06-27 01:49:00,63.0,62.0,29.73,East,82,0.0,-999.0,95,-99.99,,,0.00,weatherlink.com 1.10,2013-06-27 05:49:00,
2013-06-27 02:04:00,63.1,62.0,29.73,East,82,0.0,-999.0,95,-99.99,,,0.00,weatherlink.com 1.10,2013-06-27 06:04:00,
2013-06-27 02:19:00,63.3,62.0,29.72,ENE,78,0.0,-999.0,95,-99.99,,,0.00,weatherlink.com 1.10,2013-06-27 06:19:00,
2013-06-27 02:34:00,63.6,62.0,29.72,SSW,213,0.0,-999.0,95,-99.99,,,0.00,weatherlink.com 1.10,2013-06-27 06:34:00,
2013-06-27 02:49:00,63.7,62.0,29.72,SSW,213,1.0,-999.0,95,-99.99,,,0.00,weatherlink.com 1.10,2013-06-27 06:49:00,
2013-06-27 03:04:00,63.8,62.0,29.72,SSW,213,0.0,-999.0,95,-99.99,,,0.00,weatherlink.com 1.10,2013-06-27 07:04:00,
2013-06-27 03:19:00,63.9,63.0,29.72,SSW,213,1.0,-999.0,95,-99.99,,,0.01,weatherlink.com 1.10,2013-06-27 07:19:00,
2013-06-27 03:34:00,64.0,63.0,29.72,SSW,212,0.0,-999.0,95,-99.99,,,0.01,weatherlink.com 1.10,2013-06-27 07:34:00,
2013-06-27 03:49:00,63.9,63.0,29.72,SSE,162,0.0,-999.0,95,-99.99,,,0.01,weatherlink.com 1.10,2013-06-27 07:49:00,
2013-06-27 04:04:00,63.9,63.0,29.72,SSE,162,0.0,-999.0,95,-99.99,,,0.01,weatherlink.com 1.10,2013-06-27 08:04:00,
2013-06-27 04:19:00,63.6,62.0,29.71,SSE,161,0.0,-999.0,95,-99.99,,,0.01,weatherlink.com 1.10,2013-06-27 08:19:00,
2013-06-27 04:34:00,63.6,62.0,29.71,SSE,162,0.0,-999.0,95,-99.99,,,0.01,weatherlink.com 1.10,2013-06-27 08:34:00,
2013-06-27 04:49:00,63.4,62.0,29.70,SSE,161,0.0,-999.0,95,-99.99,,,0.01,weatherlink.com 1.10,2013-06-27 08:49:00,
2013-06-27 05:04:00,63.5,62.0,29.70,SSE,161,0.0,-999.0,95,-99.99,,,0.01,weatherlink.com 1.10,2013-06-27 09:04:00,
2013-06-27 05:19:00,63.6,62.0,29.70,SSE,162,0.0,-999.0,95,-99.99,,,0.01,weatherlink.com 1.10,2013-06-27 09:19:00,
2013-06-27 05:34:00,63.5,62.0,29.71,SSE,161,0.0,-999.0,95,-99.99,,,0.01,weatherlink.com 1.10,2013-06-27 09:34:00,
2013-06-27 05:49:00,63.4,62.0,29.71,SSE,162,0.0,-999.0,95,-99.99,,,0.01,weatherlink.com 1.10,2013-06-27 09:49:00,
2013-06-27 06:04:00,63.3,62.0,29.71,SSE,161,0.0,-999.0,95,-99.99,,,0.01,weatherlink.com 1.10,2013-06-27 10:04:00,
2013-06-27 06:19:00,63.5,62.0,29.71,East,101,0.0,-999.0,95,-99.99,,,0.01,weatherlink.com 1.10,2013-06-27 10:19:00,
2013-06-27 06:34:00,63.4,62.0,29.71,East,101,0.0,-999.0,95,-99.99,,,0.01,weatherlink.com 1.10,2013-06-27 10:34:00,
2013-06-27 06:49:00,63.4,62.0,29.71,East,101,0.0,-999.0,95,-99.99,,,0.01,weatherlink.com 1.10,2013-06-27 10:49:00,
2013-06-27 07:04:00,63.8,63.0,29.73,East,101,0.0,-999.0,96,-99.99,,,0.01,weatherlink.com 1.10,2013-06-27 11:04:00,
2013-06-27 07:19:00,64.4,63.0,29.73,East,101,1.0,-999.0,96,-99.99,,,0.01,weatherlink.com 1.10,2013-06-27 11:19:00,
2013-06-27 07:34:00,65.0,64.0,29.73,East,101,0.0,-999.0,96,-99.99,,,0.01,weatherlink.com 1.10,2013-06-27 11:34:00,
2013-06-27 07:49:00,65.4,64.0,29.73,East,101,0.0,-999.0,96,-99.99,,,0.01,weatherlink.com 1.10,2013-06-27 11:49:00,
2013-06-27 08:04:00,65.8,65.0,29.73,East,101,0.0,-999.0,96,-99.99,,,0.01,weatherlink.com 1.10,2013-06-27 12:04:00,
2013-06-27 08:19:00,66.3,65.0,29.74,East,101,0.0,-999.0,96,-99.99,,,0.01,weatherlink.com 1.10,2013-06-27 12:19:00,
2013-06-27 08:34:00,66.6,66.0,29.73,East,101,0.0,-999.0,96,-99.99,,,0.01,weatherlink.com 1.10,2013-06-27 12:34:00,
2013-06-27 08:49:00,67.6,66.0,29.73,ENE,59,2.0,-999.0,94,-99.99,,,0.01,weatherlink.com 1.10,2013-06-27 12:49:00,
2013-06-27 09:04:00,68.3,67.0,29.73,ENE,59,0.0,-999.0,94,-99.99,,,0.01,weatherlink.com 1.10,2013-06-27 13:04:00,
2013-06-27 09:19:00,68.5,67.0,29.73,ENE,59,0.0,-999.0,93,-99.99,,,0.01,weatherlink.com 1.10,2013-06-27 13:19:00,
2013-06-27 09:34:00,69.0,66.0,29.73,ENE,59,0.0,-999.0,91,-99.99,,,0.01,weatherlink.com 1.10,2013-06-27 13:34:00,
2013-06-27 09:49:00,69.7,66.0,29.73,ENE,59,0.0,-999.0,88,-99.99,,,0.01,weatherlink.com 1.10,2013-06-27 13:49:00,
2013-06-27 10:04:00,70.1,66.0,29.73,ENE,59,0.0,-999.0,87,-99.99,,,0.01,weatherlink.com 1.10,2013-06-27 14:04:00,
2013-06-27 10:19:00,70.1,66.0,29.72,ENE,59,0.0,-999.0,86,-99.99,,,0.01,weatherlink.com 1.10,2013-06-27 14:19:00,
2013-06-27 10:34:00,69.7,65.0,29.72,NE,53,0.0,-999.0,86,-99.99,,,0.01,weatherlink.com 1.10,2013-06-27 14:34:00,
2013-06-27 10:49:00,70.4,65.0,29.71,NNE,16,0.0,-999.0,84,-99.99,,,0.01,weatherlink.com 1.10,2013-06-27 14:49:00,
2013-06-27 11:04:00,70.8,66.0,29.71,NNE,24,0.0,-999.0,84,-99.99,,,0.01,weatherlink.com 1.10,2013-06-27 15:04:00,
2013-06-27 11:19:00,72.1,67.0,29.70,NE,45,1.0,-999.0,83,-99.99,,,0.01,weatherlink.com 1.10,2013-06-27 15:19:00,
2013-06-27 11:34:00,73.1,67.0,29.70,NE,53,2.0,-999.0,82,-99.99,,,0.01,weatherlink.com 1.10,2013-06-27 15:34:00,
2013-06-27 11:49:00,72.8,67.0,29.70,NNE,30,0.0,-999.0,82,-99.99,,,0.01,weatherlink.com 1.10,2013-06-27 15:49:00,
2013-06-27 12:04:00,73.9,68.0,29.69,North,355,1.0,-999.0,81,-99.99,,,0.01,weatherlink.com 1.10,2013-06-27 16:04:00,
2013-06-27 12:19:00,74.3,67.0,29.69,NE,34,0.0,-999.0,79,-99.99,,,0.01,weatherlink.com 1.10,2013-06-27 16:19:00,
2013-06-27 12:35:00,73.0,67.0,29.70,East,91,1.0,-999.0,80,-99.99,,,0.01,weatherlink.com 1.10,2013-06-27 16:35:00,
2013-06-27 12:50:00,73.3,66.0,29.69,NNE,30,2.0,-999.0,78,-99.99,,,0.01,weatherlink.com 1.10,2013-06-27 16:50:00,
2013-06-27 13:04:00,74.2,67.0,29.69,ENE,62,2.0,-999.0,78,-99.99,,,0.01,weatherlink.com 1.10,2013-06-27 17:04:00,
2013-06-27 13:20:00,75.4,68.0,29.69,ENE,67,0.0,-999.0,78,-99.99,,,0.01,weatherlink.com 1.10,2013-06-27 17:20:00,
2013-06-27 13:35:00,75.7,68.0,29.69,East,83,2.0,-999.0,78,-99.99,,,0.01,weatherlink.com 1.10,2013-06-27 17:35:00,
2013-06-27 13:50:00,74.3,67.0,29.69,NE,51,1.0,-999.0,78,-99.99,,,0.01,weatherlink.com 1.10,2013-06-27 17:50:00,
2013-06-27 14:05:00,73.6,67.0,29.69,NE,40,1.0,-999.0,79,-99.99,,,0.01,weatherlink.com 1.10,2013-06-27 18:05:00,
2013-06-27 14:20:00,70.8,66.0,29.70,ENE,64,0.0,-999.0,84,-99.99,,,0.08,weatherlink.com 1.10,2013-06-27 18:20:00,
2013-06-27 14:35:00,67.9,65.0,29.68,NE,47,0.0,-999.0,90,-99.99,,,0.20,weatherlink.com 1.10,2013-06-27 18:35:00,
2013-06-27 14:50:00,68.0,66.0,29.68,NE,47,0.0,-999.0,93,-99.99,,,0.20,weatherlink.com 1.10,2013-06-27 18:50:00,
2013-06-27 15:05:00,69.3,66.0,29.68,NE,46,2.0,-999.0,90,-99.99,,,0.20,weatherlink.com 1.10,2013-06-27 19:05:00,
2013-06-27 15:20:00,70.0,66.0,29.68,NE,47,0.0,-999.0,88,-99.99,,,0.20,weatherlink.com 1.10,2013-06-27 19:20:00,
2013-06-27 15:35:00,69.9,66.0,29.68,NE,52,0.0,-999.0,86,-99.99,,,0.20,weatherlink.com 1.10,2013-06-27 19:35:00,
2013-06-27 15:50:00,69.4,65.0,29.69,NNE,29,2.0,-999.0,87,-99.99,,,0.20,weatherlink.com 1.10,2013-06-27 19:50:00,
2013-06-27 16:05:00,69.7,66.0,29.69,NE,48,2.0,-999.0,87,-99.99,,,0.20,weatherlink.com 1.10,2013-06-27 20:05:00,
2013-06-27 16:20:00,69.9,65.0,29.68,NE,47,1.0,-999.0,85,-99.99,,,0.20,weatherlink.com 1.10,2013-06-27 20:20:00,
2013-06-27 16:35:00,70.3,66.0,29.68,NE,47,0.0,-999.0,87,-99.99,,,0.20,weatherlink.com 1.10,2013-06-27 20:35:00,
2013-06-27 16:50:00,69.5,66.0,29.67,NE,46,1.0,-999.0,89,-99.99,,,0.20,weatherlink.com 1.10,2013-06-27 20:50:00,
2013-06-27 17:04:00,68.6,66.0,29.67,NE,47,0.0,-999.0,91,-99.99,,,0.20,weatherlink.com 1.10,2013-06-27 21:04:00,
2013-06-27 17:20:00,68.6,66.0,29.68,NE,47,0.0,-999.0,91,-99.99,,,0.22,weatherlink.com 1.10,2013-06-27 21:20:00,
2013-06-27 17:35:00,68.1,66.0,29.67,NE,49,0.0,-999.0,92,-99.99,,,0.33,weatherlink.com 1.10,2013-06-27 21:35:00,
2013-06-27 17:50:00,66.4,64.0,29.69,NE,46,2.0,-999.0,91,-99.99,,,0.34,weatherlink.com 1.10,2013-06-27 21:50:00,
2013-06-27 18:05:00,62.7,60.0,29.69,SW,236,2.0,-999.0,91,-99.99,,,0.34,weatherlink.com 1.10,2013-06-27 22:05:00,
2013-06-27 18:20:00,60.7,58.0,29.70,NE,48,0.0,-999.0,92,-99.99,,,0.34,weatherlink.com 1.10,2013-06-27 22:20:00,
2013-06-27 18:35:00,60.1,58.0,29.70,East,87,0.0,-999.0,93,-99.99,,,0.34,weatherlink.com 1.10,2013-06-27 22:35:00,
2013-06-27 18:50:00,60.2,59.0,29.72,East,87,0.0,-999.0,94,-99.99,,,0.35,weatherlink.com 1.10,2013-06-27 22:50:00,
2013-06-27 19:20:00,60.6,59.0,29.71,NE,41,2.0,-999.0,95,-99.99,,,0.35,weatherlink.com 1.10,2013-06-27 23:20:00,
2013-06-27 20:05:00,61.9,61.0,29.71,NE,41,0.0,-999.0,96,-99.99,,,0.35,weatherlink.com 1.10,2013-06-28 00:05:00,
2013-06-27 20:20:00,62.4,61.0,29.71,SW,222,2.0,-999.0,96,-99.99,,,0.35,weatherlink.com 1.10,2013-06-28 00:20:00,
2013-06-27 20:35:00,62.7,62.0,29.71,WSW,237,0.0,-999.0,96,-99.99,,,0.45,weatherlink.com 1.10,2013-06-28 00:35:00,
2013-06-27 20:50:00,62.6,61.0,29.70,SW,236,0.0,-999.0,95,-99.99,,,0.49,weatherlink.com 1.10,2013-06-28 00:50:00,
2013-06-27 21:04:00,62.9,62.0,29.68,SW,236,0.0,-999.0,96,-99.99,,,0.49,weatherlink.com 1.10,2013-06-28 01:04:00,
2013-06-27 21:20:00,63.2,62.0,29.68,SW,236,0.0,-999.0,96,-99.99,,,0.49,weatherlink.com 1.10,2013-06-28 01:20:00,
2013-06-27 21:35:00,63.2,62.0,29.69,WSW,238,0.0,-999.0,96,-99.99,,,0.49,weatherlink.com 1.10,2013-06-28 01:35:00,
2013-06-27 22:05:00,63.0,62.0,29.69,WSW,238,0.0,-999.0,96,-99.99,,,0.49,weatherlink.com 1.10,2013-06-28 02:05:00,
2013-06-27 22:20:00,62.8,62.0,29.68,WSW,238,0.0,-999.0,96,-99.99,,,0.49,weatherlink.com 1.10,2013-06-28 02:20:00,
2013-06-27 22:35:00,62.5,61.0,29.68,WSW,238,0.0,-999.0,95,-99.99,,,0.49,weatherlink.com 1.10,2013-06-28 02:35:00,
2013-06-27 22:50:00,62.3,61.0,29.68,WSW,238,0.0,-999.0,95,-99.99,,,0.49,weatherlink.com 1.10,2013-06-28 02:50:00,
2013-06-27 23:05:00,62.2,61.0,29.67,WSW,238,0.0,-999.0,95,-99.99,,,0.49,weatherlink.com 1.10,2013-06-28 03:05:00,
2013-06-27 23:20:00,62.0,61.0,29.67,WSW,238,0.0,-999.0,95,-99.99,,,0.49,weatherlink.com 1.10,2013-06-28 03:20:00,
2013-06-27 23:35:00,61.9,61.0,29.66,WSW,238,0.0,-999.0,95,-99.99,,,0.49,weatherlink.com 1.10,2013-06-28 03:35:00,
2013-06-27 23:50:00,61.8,60.0,29.67,WSW,238,0.0,-999.0,95,-99.99,,,0.49,weatherlink.com 1.10,2013-06-28 03:50:00,